Weather History for Placerville, CA

Change the Weather History Date:

Wednesday, April 24, 2013

  Actual Average Record
Temperature  
Mean Temperature 66 °F -  
Max Temperature 77 °F 65 °F 77 °F (2013)
Min Temperature 55 °F 40 °F 44 °F (2011)
Cooling Degree Days 1    
Growing Degree Days 16 (Base 50)    
Moisture  
Dew Point 28 °F    
Average Humidity 28    
Maximum Humidity 55    
Minimum Humidity 11    
Precipitation  
Precipitation 0.00 in - - ()
Sea Level Pressure  
Sea Level Pressure 29.90 in    
Wind  
Wind Speed 9 mph (ESE)    
Max Wind Speed 18 mph    
Max Gust Speed 30 mph    
Visibility 10 miles    
Events      
Averages and records for this station are not official NWS values.
T = Trace of Precipitation, MM = Missing Value Source: NWS Daily Summary

Daily Weather History Graph

Daily Weather History Graph

Search for Another Location

Airport:

Trip Planner

Search our weather history database for the weather conditions in past years. The results will help you decide how hot, cold, wet, or windy it might be!

Date:

Astronomy

Apr. 24, 2013 Rise Set
Actual Time 6:13 AM PDT 7:48 PM PDT
Civil Twilight 5:45 AM PDT 8:17 PM PDT
Nautical Twilight 5:11 AM PDT 8:51 PM PDT
Astronomical Twilight 4:36 AM PDT 9:27 PM PDT
Moon 6:58 PM PDT (4/24) 5:20 AM PDT (4/24)
Length of Visible Light 14h 31m
Length of Day
13h 35m
Waxing Gibbous, 98% of the Moon is Illuminated
Apr 24
Waxing Gibbous
Apr 25
Full
May 2
Last Quarter
May 9
New
May 17
First Quarter

Hourly Weather History & Observations

Time (PDT) Temp. Dew Point Humidity Pressure Visibility Wind Dir Wind Speed Gust Speed Precip Events Conditions
12:15 AM 59.0 °F 32.0 °F 36% 29.94 in 10.0 mi East 3.5 mph - N/A   Clear
12:35 AM 59.0 °F 33.8 °F 39% 29.94 in 10.0 mi NE 6.9 mph - N/A   Clear
12:55 AM 57.2 °F 35.6 °F 44% 29.94 in 10.0 mi ENE 6.9 mph - N/A   Partly Cloudy
1:15 AM 55.4 °F 35.6 °F 47% 29.94 in 10.0 mi East 10.4 mph - N/A   Clear
1:35 AM 57.2 °F 33.8 °F 41% 29.93 in 10.0 mi East 8.1 mph - N/A   Clear
1:55 AM 57.2 °F 32.0 °F 38% 29.93 in 10.0 mi ENE 12.7 mph - N/A   Clear
2:15 AM 57.2 °F 32.0 °F 38% 29.92 in 10.0 mi ENE 13.8 mph - N/A   Clear
2:35 AM 57.2 °F 32.0 °F 38% 29.90 in 10.0 mi East 9.2 mph - N/A   Clear
3:15 AM 55.4 °F 32.0 °F 41% 29.89 in 10.0 mi East 9.2 mph - N/A   Partly Cloudy
3:35 AM 57.2 °F 32.0 °F 38% 29.89 in 10.0 mi ENE 11.5 mph - N/A   Mostly Cloudy
3:55 AM 55.4 °F 32.0 °F 41% 29.89 in 10.0 mi ENE 13.8 mph - N/A   Overcast
4:15 AM 57.2 °F 32.0 °F 38% 29.89 in 10.0 mi East 10.4 mph - N/A   Overcast
4:35 AM 57.2 °F 32.0 °F 38% 29.89 in 10.0 mi East 10.4 mph - N/A   Overcast
4:55 AM 57.2 °F 32.0 °F 38% 29.89 in 10.0 mi East 9.2 mph - N/A   Overcast
5:15 AM 57.2 °F 30.2 °F 36% 29.89 in 10.0 mi East 9.2 mph - N/A   Mostly Cloudy
5:35 AM 59.0 °F 26.6 °F 29% 29.89 in 10.0 mi East 8.1 mph - N/A   Mostly Cloudy
5:55 AM 59.0 °F 24.8 °F 27% 29.89 in 10.0 mi ESE 10.4 mph - N/A   Mostly Cloudy
6:15 AM 59.0 °F 19.4 °F 22% 29.88 in 10.0 mi ESE 11.5 mph 20.7 mph N/A   Partly Cloudy
6:35 AM 59.0 °F 15.8 °F 19% 29.88 in 10.0 mi ESE 10.4 mph 19.6 mph N/A   Clear
6:55 AM 60.8 °F 15.8 °F 17% 29.89 in 10.0 mi ESE 10.4 mph 16.1 mph N/A   Clear
7:15 AM 62.6 °F 14.0 °F 15% 29.89 in 10.0 mi ESE 10.4 mph 17.3 mph N/A   Clear
7:35 AM 62.6 °F 14.0 °F 15% 29.90 in 10.0 mi East 9.2 mph 18.4 mph N/A   Clear
7:55 AM 64.4 °F 12.2 °F 13% 29.90 in 10.0 mi East 9.2 mph 24.2 mph N/A   Clear
8:15 AM 64.4 °F 14.0 °F 14% 29.91 in 10.0 mi East 18.4 mph 27.6 mph N/A   Clear
8:35 AM 66.2 °F 15.8 °F 14% 29.91 in 10.0 mi East 8.1 mph 24.2 mph N/A   Clear
8:55 AM 66.2 °F 15.8 °F 14% 29.91 in 10.0 mi East 11.5 mph 20.7 mph N/A   Clear
9:15 AM 68.0 °F 17.6 °F 15% 29.91 in 10.0 mi East 16.1 mph 24.2 mph N/A   Clear
9:35 AM 68.0 °F 15.8 °F 13% 29.91 in 10.0 mi East 8.1 mph 19.6 mph N/A   Clear
9:55 AM 69.8 °F 15.8 °F 13% 29.92 in 10.0 mi ESE 15.0 mph 23.0 mph N/A   Clear
10:15 AM 69.8 °F 15.8 °F 13% 29.92 in 10.0 mi East 18.4 mph 29.9 mph N/A   Clear
10:35 AM 71.6 °F 17.6 °F 13% 29.92 in 10.0 mi East 15.0 mph 27.6 mph N/A   Clear
10:55 AM 71.6 °F 15.8 °F 12% 29.93 in 10.0 mi East 15.0 mph 24.2 mph N/A   Clear
11:15 AM 73.4 °F 17.6 °F 12% 29.92 in 10.0 mi East 15.0 mph 21.9 mph N/A   Clear
11:35 AM 73.4 °F 17.6 °F 12% 29.92 in 10.0 mi East 10.4 mph 18.4 mph N/A   Clear
11:55 AM 75.2 °F 17.6 °F 11% 29.92 in 10.0 mi East 11.5 mph - N/A   Clear
12:15 PM 75.2 °F 17.6 °F 11% 29.92 in 10.0 mi East 9.2 mph - N/A   Clear
12:35 PM 75.2 °F 17.6 °F 11% 29.91 in 10.0 mi ENE 9.2 mph - N/A   Clear
12:55 PM 77.0 °F 17.6 °F 11% 29.90 in 10.0 mi ENE 11.5 mph - N/A   Clear
1:15 PM 75.2 °F 15.8 °F 11% 29.90 in 10.0 mi ENE 8.1 mph - N/A   Clear
1:35 PM 77.0 °F 26.6 °F 16% 29.90 in 10.0 mi SSW 8.1 mph - N/A   Clear
1:55 PM 75.2 °F 37.4 °F 25% 29.89 in 10.0 mi SW 8.1 mph - N/A   Clear
2:15 PM 77.0 °F 37.4 °F 24% 29.89 in 10.0 mi West 12.7 mph - N/A   Clear
2:35 PM 77.0 °F 35.6 °F 22% 29.89 in 10.0 mi SW 11.5 mph 17.3 mph N/A   Clear
2:55 PM 77.0 °F 33.8 °F 21% 29.89 in 10.0 mi SW 11.5 mph 16.1 mph N/A   Clear
3:15 PM 77.0 °F 32.0 °F 19% 29.88 in 10.0 mi West 9.2 mph - N/A   Clear
3:35 PM 77.0 °F 32.0 °F 19% 29.87 in 10.0 mi West 6.9 mph - N/A   Clear
3:55 PM 77.0 °F 32.0 °F 19% 29.87 in 10.0 mi WNW 6.9 mph - N/A   Clear
4:15 PM 77.0 °F 32.0 °F 19% 29.86 in 10.0 mi West 6.9 mph - N/A   Clear
4:35 PM 77.0 °F 30.2 °F 18% 29.86 in 10.0 mi West 9.2 mph - N/A   Clear
5:15 PM 77.0 °F 28.4 °F 17% 29.85 in 10.0 mi West 9.2 mph - N/A   Clear
5:35 PM 77.0 °F 30.2 °F 18% 29.85 in 10.0 mi West 8.1 mph - N/A   Clear
5:55 PM 75.2 °F 28.4 °F 18% 29.85 in 10.0 mi WSW 6.9 mph - N/A   Clear
6:15 PM 75.2 °F 26.6 °F 17% 29.85 in 10.0 mi West 8.1 mph - N/A   Clear
6:35 PM 73.4 °F 28.4 °F 19% 29.85 in 10.0 mi WSW 9.2 mph - N/A   Clear
6:55 PM 73.4 °F 28.4 °F 19% 29.85 in 10.0 mi WSW 9.2 mph - N/A   Clear
8:15 PM 62.6 °F 44.6 °F 52% 29.88 in 10.0 mi South 6.9 mph - N/A   Clear
8:35 PM 60.8 °F 44.6 °F 55% 29.89 in 10.0 mi SSE 6.9 mph - N/A   Clear
8:55 PM 60.8 °F 42.8 °F 52% 29.90 in 10.0 mi South 6.9 mph - N/A   Clear
9:15 PM 59.0 °F 41.0 °F 51% 29.90 in 10.0 mi SSE 5.8 mph - N/A   Clear
9:35 PM 59.0 °F 41.0 °F 51% 29.91 in 10.0 mi SSE 5.8 mph - N/A   Clear
9:55 PM 59.0 °F 41.0 °F 51% 29.91 in 10.0 mi SSE 6.9 mph - N/A   Clear
10:15 PM 57.2 °F 41.0 °F 55% 29.91 in 10.0 mi SE 6.9 mph - N/A   Clear
10:35 PM 59.0 °F 37.4 °F 45% 29.91 in 10.0 mi SE 6.9 mph - N/A   Clear
10:55 PM 57.2 °F 37.4 °F 48% 29.91 in 10.0 mi SSE 5.8 mph - N/A   Partly Cloudy
11:15 PM 57.2 °F 39.2 °F 51% 29.91 in 10.0 mi South 3.5 mph - N/A   Partly Cloudy
11:35 PM 57.2 °F 39.2 °F 51% 29.91 in 10.0 mi Calm Calm - N/A   Clear
11:55 PM 59.0 °F 37.4 °F 45% 29.92 in 10.0 mi Calm Calm - N/A   Clear